Year,Month,Day,Hour,Minute,Value (Times are PST for temperature in C)
2021,06,24,00,00,16.70
2021,06,24,00,01,16.70
2021,06,24,00,02,16.70
2021,06,24,00,03,16.70
2021,06,24,00,04,16.70
2021,06,24,00,05,16.70
2021,06,24,00,06,16.60
2021,06,24,00,07,16.60
2021,06,24,00,08,16.60
2021,06,24,00,09,16.60
2021,06,24,00,10,16.60
2021,06,24,00,11,16.60
2021,06,24,00,12,16.60
2021,06,24,00,13,16.50
2021,06,24,00,14,16.50
2021,06,24,00,15,16.50
2021,06,24,00,16,16.40
2021,06,24,00,17,16.40
2021,06,24,00,18,16.40
2021,06,24,00,19,16.30
2021,06,24,00,20,16.30
2021,06,24,00,21,16.20
2021,06,24,00,22,16.20
2021,06,24,00,23,16.10
2021,06,24,00,24,16.10
2021,06,24,00,25,16.00
2021,06,24,00,26,16.00
2021,06,24,00,27,15.90
2021,06,24,00,28,15.90
2021,06,24,00,29,15.90
2021,06,24,00,30,15.90
2021,06,24,00,31,15.80
2021,06,24,00,32,15.80
2021,06,24,00,33,15.80
2021,06,24,00,34,15.80
2021,06,24,00,35,15.80
2021,06,24,00,36,15.80
2021,06,24,00,37,15.80
2021,06,24,00,38,15.80
2021,06,24,00,39,15.80
2021,06,24,00,40,15.70
2021,06,24,00,41,15.80
2021,06,24,00,42,15.70
2021,06,24,00,43,15.80
2021,06,24,00,44,15.80
2021,06,24,00,45,15.80
2021,06,24,00,46,15.80
2021,06,24,00,47,15.80
2021,06,24,00,48,15.80
2021,06,24,00,49,15.80
2021,06,24,00,50,15.80
2021,06,24,00,51,15.80
2021,06,24,00,52,15.70
2021,06,24,00,53,15.70
2021,06,24,00,54,15.70
2021,06,24,00,55,15.70
2021,06,24,00,56,15.70
2021,06,24,00,57,15.70
2021,06,24,00,58,15.70
2021,06,24,00,59,15.60
2021,06,24,01,00,15.60
2021,06,24,01,01,15.60
2021,06,24,01,02,15.60
2021,06,24,01,03,15.60
2021,06,24,01,04,15.70
2021,06,24,01,05,15.70
2021,06,24,01,06,15.70
2021,06,24,01,07,15.70
2021,06,24,01,08,15.70
2021,06,24,01,09,15.70
2021,06,24,01,10,15.70
2021,06,24,01,11,15.70
2021,06,24,01,12,15.70
2021,06,24,01,13,15.70
2021,06,24,01,14,15.70
2021,06,24,01,15,15.70
2021,06,24,01,16,15.70
2021,06,24,01,17,15.70
2021,06,24,01,18,15.70
2021,06,24,01,19,15.70
2021,06,24,01,20,15.70
2021,06,24,01,21,15.80
2021,06,24,01,22,15.80
2021,06,24,01,23,15.80
2021,06,24,01,24,15.80
2021,06,24,01,25,15.80
2021,06,24,01,26,15.80
2021,06,24,01,27,15.70
2021,06,24,01,28,15.80
2021,06,24,01,29,15.70
2021,06,24,01,30,15.70
2021,06,24,01,31,15.70
2021,06,24,01,32,15.70
2021,06,24,01,33,15.70
2021,06,24,01,34,15.70
2021,06,24,01,35,15.70
2021,06,24,01,36,15.70
2021,06,24,01,37,15.70
2021,06,24,01,38,15.70
2021,06,24,01,39,15.70
2021,06,24,01,40,15.70
2021,06,24,01,41,15.70
2021,06,24,01,42,15.70
2021,06,24,01,43,15.70
2021,06,24,01,44,15.70
2021,06,24,01,45,15.70
2021,06,24,01,46,15.70
2021,06,24,01,47,15.70
2021,06,24,01,48,15.70
2021,06,24,01,49,15.70
2021,06,24,01,50,15.70
2021,06,24,01,51,15.60
2021,06,24,01,52,15.60
2021,06,24,01,53,15.60
2021,06,24,01,54,15.60
2021,06,24,01,55,15.60
2021,06,24,01,56,15.60
2021,06,24,01,57,15.60
2021,06,24,01,58,15.50
2021,06,24,01,59,15.50
2021,06,24,02,00,15.50
2021,06,24,02,01,15.40
2021,06,24,02,02,15.40
2021,06,24,02,03,15.40
2021,06,24,02,04,15.40
2021,06,24,02,05,15.40
2021,06,24,02,06,15.40
2021,06,24,02,07,15.40
2021,06,24,02,08,15.40
2021,06,24,02,09,15.40
2021,06,24,02,10,15.40
2021,06,24,02,11,15.30
2021,06,24,02,12,15.30
2021,06,24,02,13,15.30
2021,06,24,02,14,15.30
2021,06,24,02,15,15.30
2021,06,24,02,16,15.30
2021,06,24,02,17,15.30
2021,06,24,02,18,15.30
2021,06,24,02,19,15.30
2021,06,24,02,20,15.30
2021,06,24,02,21,15.30
2021,06,24,02,22,15.30
2021,06,24,02,23,15.30
2021,06,24,02,24,15.30
2021,06,24,02,25,15.30
2021,06,24,02,26,15.30
2021,06,24,02,27,15.30
2021,06,24,02,28,15.30
2021,06,24,02,29,15.30
2021,06,24,02,30,15.30
2021,06,24,02,31,15.30
2021,06,24,02,32,15.30
2021,06,24,02,33,15.30
2021,06,24,02,34,15.30
2021,06,24,02,35,15.30
2021,06,24,02,36,15.30
2021,06,24,02,37,15.30
2021,06,24,02,38,15.30
2021,06,24,02,39,15.30
2021,06,24,02,40,15.30
2021,06,24,02,41,15.30
2021,06,24,02,42,15.30
2021,06,24,02,43,15.30
2021,06,24,02,44,15.20
2021,06,24,02,45,15.20
2021,06,24,02,46,15.20
2021,06,24,02,47,15.10
2021,06,24,02,48,15.10
2021,06,24,02,49,15.00
2021,06,24,02,50,15.00
2021,06,24,02,51,14.90
2021,06,24,02,52,14.90
2021,06,24,02,53,14.90
2021,06,24,02,54,14.80
2021,06,24,02,55,14.80
2021,06,24,02,56,14.80
2021,06,24,02,57,14.70
2021,06,24,02,58,14.70
2021,06,24,02,59,14.60
2021,06,24,03,00,14.60
2021,06,24,03,01,14.60
2021,06,24,03,02,14.60
2021,06,24,03,03,14.50
2021,06,24,03,04,14.50
2021,06,24,03,05,14.40
2021,06,24,03,06,14.40
2021,06,24,03,07,14.40
2021,06,24,03,08,14.40
2021,06,24,03,09,14.40
2021,06,24,03,10,14.40
2021,06,24,03,11,14.40
2021,06,24,03,12,14.30
2021,06,24,03,13,14.30
2021,06,24,03,14,14.30
2021,06,24,03,15,14.30
2021,06,24,03,16,14.30
2021,06,24,03,17,14.30
2021,06,24,03,18,14.30
2021,06,24,03,19,14.30
2021,06,24,03,20,14.30
2021,06,24,03,21,14.30
2021,06,24,03,22,14.30
2021,06,24,03,23,14.30
2021,06,24,03,24,14.30
2021,06,24,03,25,14.30
2021,06,24,03,26,14.30
2021,06,24,03,27,14.30
2021,06,24,03,28,14.30
2021,06,24,03,29,14.30
2021,06,24,03,30,14.30
2021,06,24,03,31,14.30
2021,06,24,03,32,14.30
2021,06,24,03,33,14.30
2021,06,24,03,34,14.30
2021,06,24,03,35,14.30
2021,06,24,03,36,14.30
2021,06,24,03,37,14.30
2021,06,24,03,38,14.30
2021,06,24,03,39,14.30
2021,06,24,03,40,14.30
2021,06,24,03,41,14.30
2021,06,24,03,42,14.30
2021,06,24,03,43,14.30
2021,06,24,03,44,14.30
2021,06,24,03,45,14.40
2021,06,24,03,46,14.40
2021,06,24,03,47,14.40
2021,06,24,03,48,14.40
2021,06,24,03,49,14.40
2021,06,24,03,50,14.40
2021,06,24,03,51,14.40
2021,06,24,03,52,14.50
2021,06,24,03,53,14.50
2021,06,24,03,54,14.50
2021,06,24,03,55,14.50
2021,06,24,03,56,14.60
2021,06,24,03,57,14.60
2021,06,24,03,58,14.60
2021,06,24,03,59,14.60
2021,06,24,04,00,14.60
2021,06,24,04,01,14.60
2021,06,24,04,02,14.60
2021,06,24,04,03,14.60
2021,06,24,04,04,14.60
2021,06,24,04,05,14.60
2021,06,24,04,06,14.60
2021,06,24,04,07,14.60
2021,06,24,04,08,14.60
2021,06,24,04,09,14.60
2021,06,24,04,10,14.60
2021,06,24,04,11,14.60
2021,06,24,04,12,14.60
2021,06,24,04,13,14.60
2021,06,24,04,14,14.60
2021,06,24,04,15,14.70
2021,06,24,04,16,14.70
2021,06,24,04,17,14.70
2021,06,24,04,18,14.70
2021,06,24,04,19,14.70
2021,06,24,04,20,14.70
2021,06,24,04,21,14.70
2021,06,24,04,22,14.70
2021,06,24,04,23,14.70
2021,06,24,04,24,14.60
2021,06,24,04,25,14.60
2021,06,24,04,26,14.60
2021,06,24,04,27,14.60
2021,06,24,04,28,14.60
2021,06,24,04,29,14.60
2021,06,24,04,30,14.60
2021,06,24,04,31,14.60
2021,06,24,04,32,14.60
2021,06,24,04,33,14.60
2021,06,24,04,34,14.60
2021,06,24,04,35,14.50
2021,06,24,04,36,14.50
2021,06,24,04,37,14.50
2021,06,24,04,38,14.50
2021,06,24,04,39,14.40
2021,06,24,04,40,14.40
2021,06,24,04,41,14.40
2021,06,24,04,42,14.40
2021,06,24,04,43,14.40
2021,06,24,04,44,14.40
2021,06,24,04,45,14.40
2021,06,24,04,46,14.40
2021,06,24,04,47,14.40
2021,06,24,04,48,14.40
2021,06,24,04,49,14.40
2021,06,24,04,50,14.30
2021,06,24,04,51,14.30
2021,06,24,04,52,14.30
2021,06,24,04,53,14.30
2021,06,24,04,54,14.30
2021,06,24,04,55,14.30
2021,06,24,04,56,14.20
2021,06,24,04,57,14.20
2021,06,24,04,58,14.20
2021,06,24,04,59,14.20
2021,06,24,05,00,14.20
2021,06,24,05,01,14.20
2021,06,24,05,02,14.10
2021,06,24,05,03,14.10
2021,06,24,05,04,14.10
2021,06,24,05,05,14.10
2021,06,24,05,06,14.10
2021,06,24,05,07,14.10
2021,06,24,05,08,14.00
2021,06,24,05,09,14.00
2021,06,24,05,10,14.00
2021,06,24,05,11,14.10
2021,06,24,05,12,14.10
2021,06,24,05,13,14.00
2021,06,24,05,14,14.00
2021,06,24,05,15,14.00
2021,06,24,05,16,13.90
2021,06,24,05,17,13.90
2021,06,24,05,18,13.90
2021,06,24,05,19,13.90
2021,06,24,05,20,13.80
2021,06,24,05,21,13.80
2021,06,24,05,22,13.80
2021,06,24,05,23,13.80
2021,06,24,05,24,13.80
2021,06,24,05,25,13.80
2021,06,24,05,26,13.80
2021,06,24,05,27,13.80
2021,06,24,05,28,13.80
2021,06,24,05,29,13.70
2021,06,24,05,30,13.80
2021,06,24,05,31,13.80
2021,06,24,05,32,13.70
2021,06,24,05,33,13.70
2021,06,24,05,34,13.70
2021,06,24,05,35,13.80
2021,06,24,05,36,13.80
2021,06,24,05,37,13.80
2021,06,24,05,38,13.80
2021,06,24,05,39,13.80
2021,06,24,05,40,13.80
2021,06,24,05,41,13.80
2021,06,24,05,42,13.80
2021,06,24,05,43,13.80
2021,06,24,05,44,13.80
2021,06,24,05,45,13.80
2021,06,24,05,46,13.80
2021,06,24,05,47,13.80
2021,06,24,05,48,13.90
2021,06,24,05,49,13.90
2021,06,24,05,50,13.90
2021,06,24,05,51,13.90
2021,06,24,05,52,13.90
2021,06,24,05,53,13.90
2021,06,24,05,54,13.90
2021,06,24,05,55,13.90
2021,06,24,05,56,13.90
2021,06,24,05,57,13.90
2021,06,24,05,58,13.80
2021,06,24,05,59,13.90
2021,06,24,06,00,13.90
2021,06,24,06,01,13.90
2021,06,24,06,02,13.90
2021,06,24,06,03,13.90
2021,06,24,06,04,13.90
2021,06,24,06,05,13.90
2021,06,24,06,06,13.90
2021,06,24,06,07,13.90
2021,06,24,06,08,14.00
2021,06,24,06,09,14.00
2021,06,24,06,10,14.00
2021,06,24,06,11,14.00
2021,06,24,06,12,14.00
2021,06,24,06,13,14.10
2021,06,24,06,14,14.10
2021,06,24,06,15,14.10
2021,06,24,06,16,14.10
2021,06,24,06,17,14.20
2021,06,24,06,18,14.20
2021,06,24,06,19,14.30
2021,06,24,06,20,14.30
2021,06,24,06,21,14.40
2021,06,24,06,22,14.50
2021,06,24,06,23,14.50
2021,06,24,06,24,14.60
2021,06,24,06,25,14.70
2021,06,24,06,26,14.70
2021,06,24,06,27,14.80
2021,06,24,06,28,14.90
2021,06,24,06,29,14.90
2021,06,24,06,30,15.00
2021,06,24,06,31,15.10
2021,06,24,06,32,15.10
2021,06,24,06,33,15.10
2021,06,24,06,34,15.10
2021,06,24,06,35,15.10
2021,06,24,06,36,15.10
2021,06,24,06,37,15.10
2021,06,24,06,38,15.10
2021,06,24,06,39,15.10
2021,06,24,06,40,15.10
2021,06,24,06,41,15.10
2021,06,24,06,42,15.10
2021,06,24,06,43,15.10
2021,06,24,06,44,15.10
2021,06,24,06,45,15.10
2021,06,24,06,46,15.10
2021,06,24,06,47,15.10
2021,06,24,06,48,15.10
2021,06,24,06,49,15.20
2021,06,24,06,50,15.20
2021,06,24,06,51,15.20
2021,06,24,06,52,15.30
2021,06,24,06,53,15.30
2021,06,24,06,54,15.30
2021,06,24,06,55,15.40
2021,06,24,06,56,15.40
2021,06,24,06,57,15.50
2021,06,24,06,58,15.60
2021,06,24,06,59,15.60
2021,06,24,07,00,15.60
2021,06,24,07,01,15.60
2021,06,24,07,02,15.60
2021,06,24,07,03,15.60
2021,06,24,07,04,15.60
2021,06,24,07,05,15.60
2021,06,24,07,06,15.60
2021,06,24,07,07,15.60
2021,06,24,07,08,15.60
2021,06,24,07,09,15.60
2021,06,24,07,10,15.60
2021,06,24,07,11,15.60
2021,06,24,07,12,15.70
2021,06,24,07,13,15.70
2021,06,24,07,14,15.70
2021,06,24,07,15,15.70
2021,06,24,07,16,15.70
2021,06,24,07,17,15.80
2021,06,24,07,18,15.80
2021,06,24,07,19,15.80
2021,06,24,07,20,15.90
2021,06,24,07,21,15.90
2021,06,24,07,22,16.00
2021,06,24,07,23,16.10
2021,06,24,07,24,16.10
2021,06,24,07,25,16.10
2021,06,24,07,26,16.10
2021,06,24,07,27,16.10
2021,06,24,07,28,16.10
2021,06,24,07,29,16.10
2021,06,24,07,30,16.10
2021,06,24,07,31,16.20
2021,06,24,07,32,16.20
2021,06,24,07,33,16.30
2021,06,24,07,34,16.30
2021,06,24,07,35,16.30
2021,06,24,07,36,16.30
2021,06,24,07,37,16.30
2021,06,24,07,38,16.40
2021,06,24,07,39,16.40
2021,06,24,07,40,16.40
2021,06,24,07,41,16.40
2021,06,24,07,42,16.40
2021,06,24,07,43,16.40
2021,06,24,07,44,16.40
2021,06,24,07,45,16.40
2021,06,24,07,46,16.40
2021,06,24,07,47,16.40
2021,06,24,07,48,16.40
2021,06,24,07,49,16.40
2021,06,24,07,50,16.40
2021,06,24,07,51,16.40
2021,06,24,07,52,16.40
2021,06,24,07,53,16.40
2021,06,24,07,54,16.40
2021,06,24,07,55,16.40
2021,06,24,07,56,16.40
2021,06,24,07,57,16.40
2021,06,24,07,58,16.50
2021,06,24,07,59,16.50
2021,06,24,08,00,16.60
2021,06,24,08,01,16.70
2021,06,24,08,02,16.70
2021,06,24,08,03,16.80
2021,06,24,08,04,16.80
2021,06,24,08,05,16.80
2021,06,24,08,06,16.80
2021,06,24,08,07,16.80
2021,06,24,08,08,16.80
2021,06,24,08,09,16.80
2021,06,24,08,10,16.80
2021,06,24,08,11,16.80
2021,06,24,08,12,16.80
2021,06,24,08,13,16.80
2021,06,24,08,14,16.90
2021,06,24,08,15,16.90
2021,06,24,08,16,16.90
2021,06,24,08,17,16.90
2021,06,24,08,18,16.90
2021,06,24,08,19,16.80
2021,06,24,08,20,16.80
2021,06,24,08,21,16.80
2021,06,24,08,22,16.80
2021,06,24,08,23,16.80
2021,06,24,08,24,16.80
2021,06,24,08,25,16.90
2021,06,24,08,26,16.90
2021,06,24,08,27,17.00
2021,06,24,08,28,16.90
2021,06,24,08,29,16.90
2021,06,24,08,30,16.90
2021,06,24,08,31,16.90
2021,06,24,08,32,17.00
2021,06,24,08,33,17.00
2021,06,24,08,34,17.10
2021,06,24,08,35,17.10
2021,06,24,08,36,17.20
2021,06,24,08,37,17.10
2021,06,24,08,38,17.10
2021,06,24,08,39,17.10
2021,06,24,08,40,17.00
2021,06,24,08,41,17.00
2021,06,24,08,42,17.00
2021,06,24,08,43,17.00
2021,06,24,08,44,17.00
2021,06,24,08,45,17.10
2021,06,24,08,46,17.10
2021,06,24,08,47,17.20
2021,06,24,08,48,17.30
2021,06,24,08,49,17.40
2021,06,24,08,50,17.40
2021,06,24,08,51,17.50
2021,06,24,08,52,17.50
2021,06,24,08,53,17.50
2021,06,24,08,54,17.50
2021,06,24,08,55,17.60
2021,06,24,08,56,17.60
2021,06,24,08,57,17.70
2021,06,24,08,58,17.90
2021,06,24,08,59,18.00
2021,06,24,09,00,18.20
2021,06,24,09,01,18.30
2021,06,24,09,02,18.40
2021,06,24,09,03,18.40
2021,06,24,09,04,18.50
2021,06,24,09,05,18.50
2021,06,24,09,06,18.60
2021,06,24,09,07,18.60
2021,06,24,09,08,18.70
2021,06,24,09,09,18.70
2021,06,24,09,10,18.80
2021,06,24,09,11,18.80
2021,06,24,09,12,18.90
2021,06,24,09,13,19.00
2021,06,24,09,14,19.10
2021,06,24,09,15,19.20
2021,06,24,09,16,19.40
2021,06,24,09,17,19.50
2021,06,24,09,18,19.70
2021,06,24,09,19,19.90
2021,06,24,09,20,20.00
2021,06,24,09,21,20.20
2021,06,24,09,22,20.30
2021,06,24,09,23,20.30
2021,06,24,09,24,20.30
2021,06,24,09,25,20.30
2021,06,24,09,26,20.30
2021,06,24,09,27,20.30
2021,06,24,09,28,20.30
2021,06,24,09,29,20.30
2021,06,24,09,30,20.30
2021,06,24,09,31,20.40
2021,06,24,09,32,20.40
2021,06,24,09,33,20.30
2021,06,24,09,34,20.30
2021,06,24,09,35,20.40
2021,06,24,09,36,20.50
2021,06,24,09,37,20.60
2021,06,24,09,38,20.60
2021,06,24,09,39,20.60
2021,06,24,09,40,20.70
2021,06,24,09,41,20.80
2021,06,24,09,42,20.80
2021,06,24,09,43,20.80
2021,06,24,09,44,20.70
2021,06,24,09,45,20.80
2021,06,24,09,46,20.90
2021,06,24,09,47,20.90
2021,06,24,09,48,20.80
2021,06,24,09,49,20.80
2021,06,24,09,50,20.80
2021,06,24,09,51,20.70
2021,06,24,09,52,20.60
2021,06,24,09,53,20.50
2021,06,24,09,54,20.50
2021,06,24,09,55,20.40
2021,06,24,09,56,20.50
2021,06,24,09,57,20.50
2021,06,24,09,58,20.60
2021,06,24,09,59,20.60
2021,06,24,10,00,20.70
2021,06,24,10,01,20.70
2021,06,24,10,02,20.70
2021,06,24,10,03,20.70
2021,06,24,10,04,20.80
2021,06,24,10,05,20.90
2021,06,24,10,06,20.90
2021,06,24,10,07,20.80
2021,06,24,10,08,20.80
2021,06,24,10,09,20.90
2021,06,24,10,10,21.00
2021,06,24,10,11,21.10
2021,06,24,10,12,21.30
2021,06,24,10,13,21.40
2021,06,24,10,14,21.40
2021,06,24,10,15,21.40
2021,06,24,10,16,21.50
2021,06,24,10,17,21.50
2021,06,24,10,18,21.60
2021,06,24,10,19,21.60
2021,06,24,10,20,21.60
2021,06,24,10,21,21.70
2021,06,24,10,22,21.80
2021,06,24,10,23,21.90
2021,06,24,10,24,22.00
2021,06,24,10,25,22.10
2021,06,24,10,26,22.10
2021,06,24,10,27,22.00
2021,06,24,10,28,21.90
2021,06,24,10,29,21.80
2021,06,24,10,30,21.80
2021,06,24,10,31,21.80
2021,06,24,10,32,21.90
2021,06,24,10,33,21.90
2021,06,24,10,34,22.00
2021,06,24,10,35,22.00
2021,06,24,10,36,22.10
2021,06,24,10,37,22.10
2021,06,24,10,38,22.10
2021,06,24,10,39,22.00
2021,06,24,10,40,21.90
2021,06,24,10,41,21.60
2021,06,24,10,42,21.30
2021,06,24,10,43,20.90
2021,06,24,10,44,20.60
2021,06,24,10,45,20.20
2021,06,24,10,46,20.00
2021,06,24,10,47,19.80
2021,06,24,10,48,19.70
2021,06,24,10,49,19.50
2021,06,24,10,50,19.40
2021,06,24,10,51,19.40
2021,06,24,10,52,19.40
2021,06,24,10,53,19.50
2021,06,24,10,54,19.70
2021,06,24,10,55,19.80
2021,06,24,10,56,19.70
2021,06,24,10,57,19.60
2021,06,24,10,58,19.60
2021,06,24,10,59,19.60
2021,06,24,11,00,19.50
2021,06,24,11,01,19.40
2021,06,24,11,02,19.30
2021,06,24,11,03,19.30
2021,06,24,11,04,19.30
2021,06,24,11,05,19.40
2021,06,24,11,06,19.40
2021,06,24,11,07,19.50
2021,06,24,11,08,19.60
2021,06,24,11,09,19.60
2021,06,24,11,10,19.60
2021,06,24,11,11,19.70
2021,06,24,11,12,19.80
2021,06,24,11,13,19.80
2021,06,24,11,14,19.80
2021,06,24,11,15,19.90
2021,06,24,11,16,19.90
2021,06,24,11,17,20.00
2021,06,24,11,18,20.10
2021,06,24,11,19,20.00
2021,06,24,11,20,20.00
2021,06,24,11,21,20.00
2021,06,24,11,22,20.10
2021,06,24,11,23,20.00
2021,06,24,11,24,19.90
2021,06,24,11,25,19.90
2021,06,24,11,26,19.90
2021,06,24,11,27,19.80
2021,06,24,11,28,19.80
2021,06,24,11,29,19.90
2021,06,24,11,30,20.00
2021,06,24,11,31,20.00
2021,06,24,11,32,19.90
2021,06,24,11,33,19.80
2021,06,24,11,34,19.90
2021,06,24,11,35,20.00
2021,06,24,11,36,20.10
2021,06,24,11,37,20.20
2021,06,24,11,38,20.10
2021,06,24,11,39,20.00
2021,06,24,11,40,19.90
2021,06,24,11,41,19.80
2021,06,24,11,42,19.70
2021,06,24,11,43,19.80
2021,06,24,11,44,19.70
2021,06,24,11,45,19.70
2021,06,24,11,46,19.70
2021,06,24,11,47,19.70
2021,06,24,11,48,19.70
2021,06,24,11,49,19.80
2021,06,24,11,50,19.70
2021,06,24,11,51,19.70
2021,06,24,11,52,19.70
2021,06,24,11,53,19.80
2021,06,24,11,54,20.00
2021,06,24,11,55,20.00
2021,06,24,11,56,19.90
2021,06,24,11,57,19.90
2021,06,24,11,58,19.80
2021,06,24,11,59,19.80
2021,06,24,12,00,19.90
2021,06,24,12,01,20.00
2021,06,24,12,02,20.10
2021,06,24,12,03,20.20
2021,06,24,12,04,20.20
2021,06,24,12,05,20.20
2021,06,24,12,06,20.20
2021,06,24,12,07,20.20
2021,06,24,12,08,20.20
2021,06,24,12,09,20.30
2021,06,24,12,10,20.50
2021,06,24,12,11,20.60
2021,06,24,12,12,20.70
2021,06,24,12,13,20.60
2021,06,24,12,14,20.60
2021,06,24,12,15,20.70
2021,06,24,12,16,20.70
2021,06,24,12,17,20.80
2021,06,24,12,18,20.80
2021,06,24,12,19,20.90
2021,06,24,12,20,20.90
2021,06,24,12,21,20.90
2021,06,24,12,22,21.00
2021,06,24,12,23,21.10
2021,06,24,12,24,21.20
2021,06,24,12,25,21.30
2021,06,24,12,26,21.40
2021,06,24,12,27,21.50
2021,06,24,12,28,21.60
2021,06,24,12,29,21.70
2021,06,24,12,30,21.80
2021,06,24,12,31,21.80
2021,06,24,12,32,21.80
2021,06,24,12,33,21.90
2021,06,24,12,34,21.90
2021,06,24,12,35,21.90
2021,06,24,12,36,21.80
2021,06,24,12,37,21.80
2021,06,24,12,38,21.70
2021,06,24,12,39,21.70
2021,06,24,12,40,21.70
2021,06,24,12,41,21.70
2021,06,24,12,42,21.80
2021,06,24,12,43,21.90
2021,06,24,12,44,21.90
2021,06,24,12,45,21.80
2021,06,24,12,46,21.80
2021,06,24,12,47,21.80
2021,06,24,12,48,21.80
2021,06,24,12,49,21.80
2021,06,24,12,50,21.90
2021,06,24,12,51,22.00
2021,06,24,12,52,22.10
2021,06,24,12,53,22.10
2021,06,24,12,54,22.00
2021,06,24,12,55,22.00
2021,06,24,12,56,21.90
2021,06,24,12,57,21.80
2021,06,24,12,58,21.80
2021,06,24,12,59,21.70
2021,06,24,13,00,21.70
2021,06,24,13,01,21.80
2021,06,24,13,02,21.90
2021,06,24,13,03,22.00
2021,06,24,13,04,22.00
2021,06,24,13,05,22.00
2021,06,24,13,06,21.90
2021,06,24,13,07,21.90
2021,06,24,13,08,21.90
2021,06,24,13,09,22.00
2021,06,24,13,10,22.00
2021,06,24,13,11,22.10
2021,06,24,13,12,22.20
2021,06,24,13,13,22.10
2021,06,24,13,14,22.00
2021,06,24,13,15,22.00
2021,06,24,13,16,22.00
2021,06,24,13,17,22.00
2021,06,24,13,18,22.00
2021,06,24,13,19,21.90
2021,06,24,13,20,21.90
2021,06,24,13,21,21.90
2021,06,24,13,22,21.90
2021,06,24,13,23,22.00
2021,06,24,13,24,22.10
2021,06,24,13,25,22.20
2021,06,24,13,26,22.20
2021,06,24,13,27,22.20
2021,06,24,13,28,22.30
2021,06,24,13,29,22.30
2021,06,24,13,30,22.30
2021,06,24,13,31,22.40
2021,06,24,13,32,22.40
2021,06,24,13,33,22.50
2021,06,24,13,34,22.60
2021,06,24,13,35,22.60
2021,06,24,13,36,22.70
2021,06,24,13,37,22.90
2021,06,24,13,38,22.90
2021,06,24,13,39,23.00
2021,06,24,13,40,23.10
2021,06,24,13,41,23.20
2021,06,24,13,42,23.00
2021,06,24,13,43,22.80
2021,06,24,13,44,22.70
2021,06,24,13,45,22.70
2021,06,24,13,46,22.70
2021,06,24,13,47,22.70
2021,06,24,13,48,22.70
2021,06,24,13,49,22.80
2021,06,24,13,50,22.90
2021,06,24,13,51,23.00
2021,06,24,13,52,23.10
2021,06,24,13,53,23.10
2021,06,24,13,54,23.10
2021,06,24,13,55,23.00
2021,06,24,13,56,22.90
2021,06,24,13,57,22.80
2021,06,24,13,58,22.70
2021,06,24,13,59,22.60
2021,06,24,14,00,22.60
2021,06,24,14,01,22.70
2021,06,24,14,02,22.70
2021,06,24,14,03,22.80
2021,06,24,14,04,22.90
2021,06,24,14,05,23.00
2021,06,24,14,06,23.00
2021,06,24,14,07,23.10
2021,06,24,14,08,23.10
2021,06,24,14,09,23.00
2021,06,24,14,10,23.10
2021,06,24,14,11,23.10
2021,06,24,14,12,23.10
2021,06,24,14,13,23.20
2021,06,24,14,14,23.30
2021,06,24,14,15,23.30
2021,06,24,14,16,23.20
2021,06,24,14,17,23.10
2021,06,24,14,18,23.00
2021,06,24,14,19,22.80
2021,06,24,14,20,22.80
2021,06,24,14,21,22.90
2021,06,24,14,22,22.90
2021,06,24,14,23,23.00
2021,06,24,14,24,23.00
2021,06,24,14,25,22.80
2021,06,24,14,26,22.70
2021,06,24,14,27,22.70
2021,06,24,14,28,22.60
2021,06,24,14,29,22.50
2021,06,24,14,30,22.40
2021,06,24,14,31,22.40
2021,06,24,14,32,22.40
2021,06,24,14,33,22.40
2021,06,24,14,34,22.50
2021,06,24,14,35,22.50
2021,06,24,14,36,22.60
2021,06,24,14,37,22.50
2021,06,24,14,38,22.50
2021,06,24,14,39,22.60
2021,06,24,14,40,22.60
2021,06,24,14,41,22.60
2021,06,24,14,42,22.60
2021,06,24,14,43,22.60
2021,06,24,14,44,22.60
2021,06,24,14,45,22.70
2021,06,24,14,46,22.70
2021,06,24,14,47,22.70
2021,06,24,14,48,22.80
2021,06,24,14,49,22.80
2021,06,24,14,50,22.80
2021,06,24,14,51,22.70
2021,06,24,14,52,22.70
2021,06,24,14,53,22.80
2021,06,24,14,54,22.80
2021,06,24,14,55,22.80
2021,06,24,14,56,22.90
2021,06,24,14,57,22.80
2021,06,24,14,58,22.80
2021,06,24,14,59,22.80
2021,06,24,15,00,22.90
2021,06,24,15,01,22.80
2021,06,24,15,02,22.70
2021,06,24,15,03,22.60
2021,06,24,15,04,22.50
2021,06,24,15,05,22.50
2021,06,24,15,06,22.60
2021,06,24,15,07,22.70
2021,06,24,15,08,22.80
2021,06,24,15,09,22.90
2021,06,24,15,10,22.90
2021,06,24,15,11,22.90
2021,06,24,15,12,22.90
2021,06,24,15,13,22.90
2021,06,24,15,14,23.00
2021,06,24,15,15,22.90
2021,06,24,15,16,22.90
2021,06,24,15,17,22.90
2021,06,24,15,18,22.90
2021,06,24,15,19,22.90
2021,06,24,15,20,22.80
2021,06,24,15,21,22.80
2021,06,24,15,22,22.80
2021,06,24,15,23,22.80
2021,06,24,15,24,22.80
2021,06,24,15,25,22.80
2021,06,24,15,26,22.80
2021,06,24,15,27,22.90
2021,06,24,15,28,23.00
2021,06,24,15,29,23.00
2021,06,24,15,30,23.20
2021,06,24,15,31,23.30
2021,06,24,15,32,23.40
2021,06,24,15,33,23.50
2021,06,24,15,34,23.50
2021,06,24,15,35,23.50
2021,06,24,15,36,23.50
2021,06,24,15,37,23.40
2021,06,24,15,38,23.40
2021,06,24,15,39,23.30
2021,06,24,15,40,23.30
2021,06,24,15,41,23.40
2021,06,24,15,42,23.50
2021,06,24,15,43,23.50
2021,06,24,15,44,23.70
2021,06,24,15,45,23.80
2021,06,24,15,46,23.90
2021,06,24,15,47,24.10
2021,06,24,15,48,24.10
2021,06,24,15,49,24.20
2021,06,24,15,50,24.30
2021,06,24,15,51,24.30
2021,06,24,15,52,24.30
2021,06,24,15,53,24.20
2021,06,24,15,54,24.10
2021,06,24,15,55,23.90
2021,06,24,15,56,23.80
2021,06,24,15,57,23.80
2021,06,24,15,58,23.80
2021,06,24,15,59,23.90
2021,06,24,16,00,24.00
2021,06,24,16,01,24.10
2021,06,24,16,02,24.10
2021,06,24,16,03,24.10
2021,06,24,16,04,24.00
2021,06,24,16,05,24.00
2021,06,24,16,06,24.00
2021,06,24,16,07,24.00
2021,06,24,16,08,24.00
2021,06,24,16,09,24.00
2021,06,24,16,10,24.20
2021,06,24,16,11,24.30
2021,06,24,16,12,24.30
2021,06,24,16,13,24.30
2021,06,24,16,14,24.30
2021,06,24,16,15,24.30
2021,06,24,16,16,24.30
2021,06,24,16,17,24.30
2021,06,24,16,18,24.20
2021,06,24,16,19,24.10
2021,06,24,16,20,24.10
2021,06,24,16,21,24.20
2021,06,24,16,22,24.20
2021,06,24,16,23,24.40
2021,06,24,16,24,24.50
2021,06,24,16,25,24.50
2021,06,24,16,26,24.60
2021,06,24,16,27,24.50
2021,06,24,16,28,24.40
2021,06,24,16,29,24.30
2021,06,24,16,30,24.20
2021,06,24,16,31,24.10
2021,06,24,16,32,24.10
2021,06,24,16,33,24.10
2021,06,24,16,34,24.00
2021,06,24,16,35,24.00
2021,06,24,16,36,24.00
2021,06,24,16,37,24.10
2021,06,24,16,38,24.20
2021,06,24,16,39,24.30
2021,06,24,16,40,24.30
2021,06,24,16,41,24.20
2021,06,24,16,42,24.20
2021,06,24,16,43,24.20
2021,06,24,16,44,24.20
2021,06,24,16,45,24.20
2021,06,24,16,46,24.30
2021,06,24,16,47,24.30
2021,06,24,16,48,24.30
2021,06,24,16,49,24.30
2021,06,24,16,50,24.30
2021,06,24,16,51,24.30
2021,06,24,16,52,24.20
2021,06,24,16,53,24.20
2021,06,24,16,54,24.20
2021,06,24,16,55,24.20
2021,06,24,16,56,24.20
2021,06,24,16,57,24.30
2021,06,24,16,58,24.30
2021,06,24,16,59,24.40
2021,06,24,17,00,24.40
2021,06,24,17,01,24.40
2021,06,24,17,02,24.30
2021,06,24,17,03,24.20
2021,06,24,17,04,24.20
2021,06,24,17,05,24.10
2021,06,24,17,06,23.90
2021,06,24,17,07,23.70
2021,06,24,17,08,23.60
2021,06,24,17,09,23.50
2021,06,24,17,10,23.50
2021,06,24,17,11,23.40
2021,06,24,17,12,23.40
2021,06,24,17,13,23.40
2021,06,24,17,14,23.30
2021,06,24,17,15,23.40
2021,06,24,17,16,23.50
2021,06,24,17,17,23.50
2021,06,24,17,18,23.50
2021,06,24,17,19,23.40